Vorticity
5 5 0 0 1 2 2 2 4 3 8 7 5 5 4 3 2 5 4 6 6 8 8 6 5 5 5 5 6 6 9 8 6 6 7 7 6 6 5 6 7 8 8
4 6 5 0 0 1 2 -0 2 2 2 3 4 5 8 9 8 4 5 5 7 8 9 7 5 5 4 5 6 6 5 8 7 5 5 6 7 6 6 6 6 6 7
3 5 7 4 0 2 3 0 1 1 1 2 1 2 3 3 10 10 5 7 4 7 8 9 6 5 4 4 5 5 6 6 6 9 5 5 5 5 3 4 3 4 5
4 4 4 2 2 5 5 3 4 5 5 3 3 5 6 7 9 9 8 8 7 6 9 11 7 6 6 4 4 5 5 6 7 6 9 7 6 6 5 5 5 4 3
4 4 3 3 1 4 1 3 4 5 5 5 4 6 7 7 7 8 10 8 7 7 7 8 10 5 5 5 5 5 4 4 6 7 -8 14 5 6 7 6 5 4 5
4 3 4 5 2 3 2 4 3 4 5 6 6 7 6 6 4 5 7 8 6 7 10 4 8 8 5 4 3 3 4 2 3 3 4 6 6 8 4 6 7 5 4
4 4 5 3 2 4 3 2 3 3 4 7 7 7 9 5 5 4 5 8 14 7 7 14 5 9 7 4 3 1 4 3 4 4 5 2 15 -0 3 7 6 6 6
4 5 5 2 2 3 3 2 1 4 6 8 8 7 7 7 6 4 5 7 5 7 10 11 13 5 2 7 4 3 3 2 2 4 4 1 -12 32 16 0 4 6 6
4 4 4 3 2 3 3 0 3 7 7 8 7 7 6 7 9 7 6 5 3 4 0 8 16 14 -8 20 5 4 4 1 -0 5 2 2 4 4 17 9 4 5 7
5 4 4 5 3 2 3 -1 3 9 9 7 7 5 7 10 11 6 8 12 5 11 10 3 9 16 6 5 9 0 4 2 2 4 2 6 7 -3 14 9 2 3 4
4 4 3 4 4 3 3 1 -1 12 8 7 5 6 10 7 10 7 11 10 7 44 25 27 35 34 37 48 21 2 6 5 4 5 3 2 -1 14 19 37 -5 20 8
3 3 4 6 2 4 2 3 4 11 6 6 8 12 5 11 11 8 -3 11 19 -20 15 2 1 6 35 45 -4 3 7 2 5 4 3 19 9 7 2 11 11 13 16
3 3 6 3 3 2 4 7 11 7 8 6 9 9 10 11 7 -9 12 -0 8 14 -0 2 -3 -3 -5 89 52 -5 7 -0 1 6 4 1 9 5 12 2 23 -4 5
4 10 3 6 3 4 21 17 8 5 8 9 8 5 3 15 4 14 3 13 3 3 5 6 3 0 8 3 109 18 3 14 -1 8 -1 4 3 3 7 8 16 12 10
6 2 7 1 14 17 17 6 5 11 9 6 7 4 8 11 2 5 2 -0 3 11 1 4 1 2 -1 -1 2 55 23 22 46 2 4 3 3 6 1 14 5 -7 6
-1 10 21 16 12 13 4 5 9 9 6 6 2 9 11 7 8 5 2 3 4 3 -0 -5 8 -5 1 2 5 5 2 7 8 32 29 16 7 7 11 13 10 6 6
3 16 21 7 6 5 7 9 9 9 7 2 7 8 6 6 1 9 4 0 0 -4 -6 7 2 4 16 6 -1 9 1 14 2 7 5 27 3 -1 -9 -6 8 10 7
13 8 10 7 5 10 11 7 10 7 9 2 8 6 6 3 7 2 2 3 5 -3 -8 4 6 10 11 15 16 3 2 2 4 4 9 19 4 1 10 10 -1 3 2
13 8 9 5 6 10 8 10 7 7 5 7 4 6 5 5 6 -0 -0 -0 0 1 1 4 13 10 10 13 16 11 10 5 8 5 0 -4 3 6 -1 -1 6 2 -0
10 10 9 6 8 10 9 7 7 6 5 1 6 3 5 4 7 4 1 -1 -3 3 8 11 7 11 7 15 14 15 21 11 10 14 -4 7 4 7 15 15 13 3 8
11 9 7 10 11 11 9 7 6 5 4 3 3 4 1 6 3 4 3 2 3 4 6 7 12 6 9 15 5 10 18 16 12 8 12 2 -5 9 2 13 14 9 6
9 6 9 11 10 9 7 9 6 4 2 5 5 5 4 5 5 3 2 5 9 4 -2 19 9 9 3 5 9 10 5 11 13 12 17 17 24 14 6 13 20 8 13
7 9 9 9 8 6 8 5 6 5 5 4 4 7 2 4 2 3 4 9 -0 4 11 19 3 4 7 5 10 4 13 4 -6 -2 0 11 8 7 -3 -6 10 25 15
8 9 10 9 9 7 5 5 6 8 5 5 6 3 5 3 2 3 12 3 4 5 14 12 0 4 9 10 10 6 2 4 7 10 15 2 0 -4 -0 1 9 8 1
7 10 8 8 7 6 5 6 5 4 4 5 7 2 1 4 7 11 8 7 5 5 14 12 6 10 7 5 5 1 -1 -2 -6 -7 -4 4 3 8 4 13 0 -5 8
10 9 8 8 6 4 5 5 6 6 8 6 1 4 6 6 4 4 5 6 1 11 12 8 6 9 10 8 4 6 6 8 6 3 3 2 5 -4 -4 2 2 6 13
Height
5920 5918 5916 5915 5914 5912 5910 5908 5906 5903 5900 5898 5895 5893 5890 5887 5884 5881 5878 5876 5873 5870 5868 5865 5863 5861 5859 5858 5855 5853 5851 5850 5848 5848 5846 5844 5843 5843 5842 5841 5841 5841 5841
5920 5919 5917 5915 5914 5912 5909 5907 5905 5903 5900 5897 5895 5892 5888 5886 5883 5880 5878 5875 5872 5870 5868 5865 5862 5860 5858 5856 5855 5853 5850 5848 5847 5846 5845 5844 5843 5842 5842 5840 5840 5840 5840
5920 5918 5917 5915 5913 5911 5909 5906 5904 5902 5899 5896 5893 5890 5887 5884 5881 5879 5876 5874 5871 5869 5866 5863 5859 5857 5855 5854 5853 5851 5849 5847 5847 5845 5844 5842 5841 5840 5841 5841 5840 5840 5840
5919 5917 5916 5914 5912 5910 5908 5906 5903 5901 5898 5895 5892 5889 5885 5882 5878 5875 5874 5872 5869 5867 5864 5861 5858 5856 5853 5852 5850 5849 5847 5845 5845 5844 5844 5842 5841 5840 5839 5839 5840 5840 5839
5918 5916 5914 5913 5911 5908 5907 5905 5902 5899 5896 5894 5890 5887 5883 5879 5876 5873 5871 5869 5867 5864 5861 5859 5857 5854 5853 5850 5848 5848 5847 5844 5843 5843 5843 5842 5841 5840 5840 5839 5838 5839 5839
5917 5915 5913 5911 5910 5908 5906 5904 5900 5897 5894 5891 5887 5884 5880 5877 5873 5870 5868 5867 5864 5862 5859 5856 5853 5851 5849 5847 5845 5845 5845 5843 5844 5843 5843 5841 5840 5839 5837 5837 5836 5835 5836
5914 5913 5911 5909 5908 5906 5904 5901 5897 5895 5891 5888 5884 5881 5878 5874 5870 5867 5865 5863 5861 5859 5856 5853 5850 5849 5846 5842 5841 5840 5840 5841 5843 5842 5841 5839 5837 5834 5833 5833 5833 5833 5832
5912 5910 5909 5907 5906 5903 5901 5898 5895 5892 5888 5885 5881 5877 5874 5870 5867 5864 5861 5859 5857 5854 5851 5849 5846 5844 5844 5840 5835 5834 5834 5834 5838 5840 5838 5835 5834 5833 5829 5830 5829 5829 5830
5909 5908 5906 5905 5903 5900 5897 5895 5892 5888 5884 5881 5878 5874 5870 5868 5865 5861 5859 5856 5854 5850 5847 5844 5840 5837 5834 5834 5832 5827 5826 5829 5833 5835 5833 5832 5831 5829 5828 5826 5826 5825 5826
5907 5905 5902 5901 5900 5896 5893 5892 5888 5885 5881 5877 5874 5870 5867 5865 5862 5858 5855 5853 5849 5846 5843 5839 5836 5832 5827 5826 5826 5824 5819 5824 5828 5828 5827 5830 5827 5825 5823 5821 5821 5822 5821
5905 5903 5900 5897 5896 5892 5890 5888 5885 5882 5878 5874 5870 5867 5865 5861 5858 5855 5852 5849 5845 5841 5839 5834 5831 5826 5823 5817 5818 5820 5816 5817 5819 5822 5822 5823 5820 5821 5817 5812 5811 5816 5815
5901 5899 5895 5892 5892 5888 5887 5884 5882 5879 5875 5870 5867 5865 5862 5858 5855 5852 5849 5846 5843 5841 5838 5832 5827 5822 5817 5814 5813 5813 5814 5809 5811 5814 5817 5815 5814 5814 5814 5808 5811 5811 5810
5898 5897 5893 5886 5887 5884 5882 5880 5877 5874 5871 5866 5864 5862 5859 5856 5853 5851 5848 5845 5841 5839 5834 5829 5823 5819 5813 5802 5799 5805 5807 5805 5805 5806 5808 5809 5810 5810 5811 5813 5810 5808 5805
5896 5894 5890 5886 5882 5879 5877 5874 5872 5869 5866 5863 5861 5858 5856 5853 5850 5848 5844 5842 5840 5836 5831 5828 5823 5818 5814 5808 5804 5800 5801 5802 5804 5804 5804 5806 5804 5805 5805 5803 5805 5795 5801
5884 5885 5883 5878 5876 5874 5871 5869 5866 5864 5862 5859 5858 5855 5852 5850 5848 5845 5842 5840 5837 5834 5831 5828 5823 5818 5812 5809 5807 5805 5809 5805 5802 5801 5800 5799 5799 5800 5801 5800 5800 5796 5798
5879 5877 5874 5870 5869 5869 5866 5863 5861 5859 5858 5856 5853 5851 5849 5848 5845 5841 5838 5836 5834 5831 5828 5823 5818 5814 5811 5809 5807 5805 5803 5802 5800 5800 5798 5797 5796 5795 5795 5795 5793 5792 5793
5873 5870 5866 5863 5862 5863 5860 5858 5857 5855 5853 5851 5849 5848 5846 5844 5841 5837 5834 5832 5830 5827 5823 5818 5816 5810 5807 5804 5805 5803 5800 5797 5794 5793 5790 5792 5793 5791 5790 5789 5787 5786 5786
5867 5865 5862 5858 5857 5857 5855 5853 5852 5851 5849 5847 5846 5845 5843 5840 5837 5833 5830 5828 5826 5824 5820 5814 5810 5808 5805 5802 5799 5796 5793 5791 5789 5787 5785 5783 5787 5785 5784 5784 5782 5780 5779
5861 5859 5856 5853 5852 5851 5850 5849 5848 5846 5845 5843 5842 5840 5838 5835 5832 5829 5826 5822 5819 5817 5815 5810 5805 5802 5802 5797 5795 5793 5791 5787 5784 5782 5780 5779 5777 5775 5775 5775 5775 5773 5772
5853 5853 5851 5848 5846 5845 5843 5842 5842 5841 5839 5838 5837 5835 5833 5831 5828 5824 5820 5816 5811 5808 5806 5804 5799 5795 5791 5791 5789 5786 5785 5783 5781 5779 5776 5773 5771 5769 5768 5766 5765 5764 5762
5845 5845 5844 5842 5841 5839 5838 5838 5837 5836 5834 5832 5831 5829 5827 5825 5822 5819 5814 5810 5806 5802 5799 5796 5794 5789 5785 5782 5780 5778 5776 5775 5773 5773 5771 5767 5765 5763 5760 5758 5755 5754 5753
5839 5838 5837 5836 5835 5834 5833 5832 5831 5830 5828 5827 5826 5824 5822 5819 5816 5812 5809 5804 5800 5795 5792 5788 5784 5780 5777 5775 5772 5770 5769 5767 5764 5761 5759 5758 5756 5753 5750 5748 5746 5744 5744
5833 5832 5831 5830 5829 5828 5826 5826 5825 5824 5823 5822 5820 5817 5815 5812 5809 5806 5802 5798 5794 5789 5785 5779 5773 5770 5767 5765 5762 5759 5756 5754 5752 5750 5749 5748 5746 5744 5741 5738 5734 5733 5731
5826 5825 5824 5823 5822 5821 5821 5820 5819 5818 5816 5814 5812 5810 5808 5805 5802 5799 5795 5791 5787 5782 5776 5772 5767 5764 5759 5756 5752 5749 5747 5744 5742 5741 5740 5736 5734 5732 5730 5728 5724 5721 5719
5819 5818 5817 5816 5815 5815 5814 5813 5812 5811 5809 5808 5806 5804 5801 5798 5795 5791 5787 5782 5777 5773 5768 5763 5760 5755 5751 5746 5742 5738 5736 5733 5731 5730 5728 5726 5723 5719 5716 5714 5713 5711 5707
5811 5810 5810 5809 5808 5808 5807 5806 5805 5803 5802 5800 5799 5796 5793 5790 5786 5782 5776 5771 5767 5763 5759 5755 5750 5746 5742 5736 5732 5728 5724 5721 5718 5715 5714 5713 5710 5707 5703 5699 5699 5697 5693